OPS 0856 DEB, 27724

Orbit data source: Space-Track

OPS 0856 DEB, 27724 is space debris in LEO originally from a launch on Fri, 19 Aug 1966 UTC launched from the Air Force Western Test Range (AFWTR). Debris objects in space refer to the collection of defunct objects orbiting the Earth. Examples of debris include non-operational satellites, rocket bodies, and fragments generated from explosions, collisions, or faulty payload assembly.

Loading next visibility...
Identifier
27724, 1966-077AC
Orbit
LEO
Country
Flag of USUS
Related business
Manufacturer
Unknown
Mission
Spacecraft
Bus & Motor
Unknown
Mass
Unknown
Launch date (UTC)
1966-08-19 (59 years ago)
Launch vehicle
Unknown
Launch site
Air Force Western Test Range (AFWTR)
Object type
Payload
Rocket body
Debris
Shape & HBR
Unknown
Radar Cross Section
Small (<0.1 m²)

Expand to show TLE details & history
Last TLE update: 1 year ago

TLE from 1 year ago
0 OPS 0856 DEB
1 27724U 66077AC  24232.93446642  .00000319  00000-0  54220-1 0  9996
2 27724  89.4978 220.2823 1303233 319.0474  53.8356  8.79425084 92515
Epoch: 2024-08-19T22:25Z
TLE epoch observation values (Epoch: 2024-08-19T22:25:37.898Z)
Latitude
26.12028°
Longitude
-84.63863°
Altitude
2,899.242 km
Speed
6.765 km/s
True Right ascension
14h 42m 06s
True Declination
26° 00' 57"
Sunlit
Object was in daylight at epoch
Visualization orbit readout
Latitude
Unknown
Longitude
Unknown
Altitude
Unknown
Speed
Unknown
Apparent Right ascension
Unknown
Apparent Declination
Unknown
Sunlit
N/A
Visualization observer readout
Local Sidereal Time
04:51:38
Azimuth
Unknown
Elevation
Unknown
Doppler factor
Unknown
Orbital elements
Apogee altitude
4,825.846 km
Perigee altitude
2,242.266 km
Semi-major axis
9,912.193 km
Eccentricity
0.13032
Inclination
89.4978°
RAAN
220.2823°
Arg. of periapsis
319.0474°
True anomaly
67.0489°
Mean anomaly
53.8356°
Eccentric anomaly
60.32314°
Mean motion
2.19932 °/min
Orbital period
163.69 mins
BSTAR
0.05422
Loading maneuver chart data...
Computing Atmospheric mass density...
Loading historical data...
Loading historical data...
Loading historical data...
Loading historical data...
Loading historical data...
Loading historical data...
Loading historical data...

Documentation

Showing up to 5 results
|